Hourly Data Report for November 08, 2020

MUSKOKA
ONTARIO
Current Station Operator: NAVCAN

44°58'29.000" N
79°18'12.000" W
281.90 m
6115529
71532
YQA

Download Data

Hourly Data (November 2020)
Hourly Data Report for November 8, 2020
TIME
LST
Temp Definition
°C
Dew Point Definition
°C
Rel Hum Definition
%
Precip. Amount Definition
mm

Wind Dir Definition
10's deg

Wind Spd Definition
km/h
Visibility Definition
km
Stn Press Definition
kPa
Hmdx Definition


Wind Chill Definition


Weather Definition


00:00 7.0 6.0 93 LegendMM 19 9 16.1 98.87     LegendNANA
01:00 7.0 6.3 95 LegendMM 18 8 16.1 98.91     LegendNANA
02:00 3.5 3.2 98 LegendMM   0 4.0 98.97     Fog
03:00 2.9 2.8 99 LegendMM LegendMM 4 4.0 99.02     Fog
04:00 3.1 3.0 99 LegendMM 15 4 0.4 99.05     Fog
05:00 1.5 1.4 99 LegendMM   0 2.8 99.10     Fog
06:00 1.7 1.6 99 LegendMM 16 5 0.4 99.15     Fog
07:00 0.7 0.6 99 LegendMM 15 5 1.2 99.19     Fog
08:00 1.7 1.6 99 LegendMM   0 4.0 99.26     Fog
09:00 9.0 9.0 100 LegendMM LegendMM 4 12.9 99.28     LegendNANA
10:00 15.4 8.0 61 LegendMM 21 8 16.1 99.27     LegendNANA
11:00 17.8 8.0 52 LegendMM 25 8 16.1 99.28     LegendNANA
12:00 19.2 8.6 50 LegendMM 25 8 16.1 99.24     LegendNANA
13:00 20.2 9.3 49 LegendMM 22 13 16.1 99.20     LegendNANA
14:00 20.4 9.2 48 LegendMM 27 13 16.1 99.20     LegendNANA
15:00 20.2 9.0 48 LegendMM 26 11 16.1 99.21     LegendNANA
16:00 18.9 9.2 53 LegendMM 29 9 16.1 99.23     LegendNANA
17:00 16.3 9.1 62 LegendMM 29 4 16.1 99.25     LegendNANA
18:00 10.6 8.5 87 LegendMM 16 5 16.1 99.24     LegendNANA
19:00 7.7 7.0 95 LegendMM 15 4 16.1 99.22     LegendNANA
20:00 6.4 5.8 96 LegendMM   0 16.1 99.17     LegendNANA
21:00 6.3 6.0 98 LegendMM   0 12.9 99.20     LegendNANA
22:00 6.9 6.6 98 LegendMM 15 4 16.1 99.17     LegendNANA
23:00 4.7 4.3 97 LegendMM 14 4 6.4 99.20     Fog

Notes on Data Quality.

Legend

  • E = Estimated
  • M = Missing
  • NA = Not Available*
  • [empty] = Indicates an unobserved value
Date modified: